Torna al catalogo

BEIDOU 3M21

AttivoNavigazioneMEO
NORAD 44793·PAYLOAD·🇨🇳 China

Lanciato Nov 23, 2019 da Xichang Satellite Launch Center

Loading…

Prossimi Passaggi (prossime 24 ore)

TLE

AggiornatoSource: Space-Track

Epoca: Sep 14, 2026, 05:13 UTC

1 44793U 19078A   26257.21795676 -.00000059  00000-0  00000-0 0  9992
2 44793  53.8521 296.6877 0004864  42.8502 317.2452  1.86227095 46308

Traccia BEIDOU 3M21 in tempo reale con AllMySat

Download on the App Store